Location: Oshawa
(43.9000°N, 78.8670°W)
Time: 03:07:55
(UTC-04:00)

Daily predictions for brighter satellites

Satellite Brightness Start Highest point End
(mag) Time Altitude Azimuth Time Altitude Azimuth Time Altitude Azimuth
CZ-2D R/B 4.3 03:06:58 10° NE 03:09:27 21° ENE 03:09:27 21° ENE
SL-16 R/B 3.6 03:17:53 41° NNE 03:17:53 41° NNE 03:22:19 10° N
Lacrosse 5 rocket 4.4 03:25:43 14° ENE 03:25:43 14° ENE 03:26:29 10° ENE
Cosmos 2333 Rocket 4.4 03:29:19 10° N 03:33:48 23° NE 03:38:15 10° E
CZ-4C R/B 3.3 03:31:45 10° NW 03:40:28 55° ESE 03:46:34 10° SE
Resurs 1-4 Rocket 3.4 03:39:23 10° NNE 03:42:58 38° NE 03:42:58 38° NE
ATLAS 2AS CENTAUR R/B 3.2 04:00:18 59° NW 04:00:18 59° NW 04:08:21 10° NNE
Cosmos 2237 Rocket 4.0 03:59:18 10° N 04:04:14 30° NE 04:09:08 10° ESE
Gbstr 26 Del rocket 4.3 04:08:38 61° NW 04:10:05 80° NNE 04:18:09 10° ESE
IRS-1D 4.4 04:07:11 10° N 04:10:57 46° N 04:10:57 46° N
Cosmos 2239 Rocket 4.4 04:08:12 10° N 04:14:27 84° E 04:14:32 83° E
Cosmos 968 Rocket 3.9 04:16:28 58° NE 04:16:28 58° NE 04:20:46 10° NNE
Okean O Rocket 3.2 04:12:21 10° NE 04:16:13 29° E 04:16:41 29° ESE
Meteor 1-18 Rocket 4.4 04:16:35 74° ESE 04:16:38 74° E 04:22:27 10° NNE
Cosmos 2219 3.3 04:18:02 69° NNE 04:18:02 69° NNE 04:22:57 10° NNE
ATLAS 5 CENTAUR R/B 3.6 04:12:29 10° NNW 04:18:01 40° NE 04:23:57 10° ESE
MOS 1-B 4.4 04:15:03 10° NNE 04:20:50 70° ESE 04:21:22 66° SE
Cosmos 2344 3.7 04:26:23 49° SSW 04:28:45 76° ESE 04:37:30 10° NE
NOSS 3-2 (A) 4.2 04:21:33 10° NNW 04:28:57 68° NE 04:36:57 10° SE
Cosmos 1461 4.0 04:31:20 42° NNE 04:31:20 42° NNE 04:34:17 10° NNE
USA 238 DEB 3.9 04:26:38 10° NW 04:35:03 51° SSW 04:40:27 10° SSE
USA 238 3.8 04:26:44 10° NW 04:34:55 53° SSW 04:40:33 10° SSE
BREEZE-M DEB (TANK) 4.5 04:36:06 34° SSE 04:36:06 34° SSE 04:38:59 10° E
Cosmos 1743 4.4 04:33:01 10° N 04:36:29 32° ENE 04:39:18 14° SE
Cosmos 1535 Rocket 4.4 04:31:49 10° NNW 04:37:42 66° W 04:37:42 66° W
Cosmos 2227 Rocket 3.4 04:35:18 22° SSE 04:38:19 39° ESE 04:43:32 10° NE
Nadezhda 3 Rocket 4.4 04:39:22 47° WNW 04:39:22 47° WNW 04:44:48 10° N
PSLV R/B 4.4 04:37:33 10° NNE 04:41:29 57° E 04:41:29 57° E
Okean 1-7 Rocket 4.1 04:41:51 50° SE 04:42:27 55° E 04:46:46 10° NNE
Cosmos 773 Rocket 3.9 04:38:48 10° NNW 04:44:05 84° ENE 04:49:16 10° SSE
ADEOS II 4.1 04:41:07 10° NE 04:45:28 26° E 04:49:47 10° SSE
CZ-4B R/B 4.1 04:41:35 10° NNE 04:45:44 44° E 04:47:43 27° SSE
Cosmos 2219 Rocket 2.1 04:40:20 10° NNW 04:46:04 89° ENE 04:51:45 10° SSE
Cosmos 2297 Rocket 3.7 04:43:33 12° SSE 04:48:09 33° ESE 04:53:10 10° NE
CZ-2D R/B 2.7 04:46:38 10° N 04:50:46 39° NW 04:50:46 39° NW
Meteor 2-8 Rocket 4.5 04:48:13 27° S 04:51:49 79° E 04:57:58 10° N
Cosmos 1727 Rocket 4.1 04:51:31 15° S 04:56:50 74° E 05:03:09 10° NNE
Cosmos 1777 Rocket 3.9 04:57:51 54° SSW 04:59:05 86° WNW 05:04:22 10° NNE
SL-16 R/B 3.9 05:02:59 21° NW 05:02:59 21° NW 05:05:33 10° NW
ARIANE 5 R/B 3.8 04:57:14 10° N 05:00:28 25° NW 05:00:28 25° NW
Lacrosse 5 rocket 2.2 05:01:27 43° NW 05:01:33 43° NW 05:05:52 10° NE
PAYLOAD B 4.3 04:57:55 10° NNE 05:03:26 76° ESE 05:07:22 20° S
NOSS 3-2 (C) 4.0 04:58:06 10° NW 05:05:37 87° NE 05:13:42 10° SE
CENTAUR R/B 4.3 05:03:38 10° NNW 05:10:46 41° NE 05:18:26 10° ESE
Cosmos 2112 Rocket 4.1 05:09:21 10° NNW 05:14:42 77° ENE 05:19:57 10° SSE
Okean-O 3.9 05:11:35 10° NNE 05:15:46 40° E 05:19:57 10° SSE
Cosmos 2082 3.8 05:12:43 21° SSW 05:16:35 73° ESE 05:22:12 10° NNE
Cosmos 2333 Rocket 2.1 05:12:54 10° NNW 05:18:35 66° WSW 05:24:11 10° SSE
ADEOS Rocket 3.5 05:11:59 10° NNE 05:19:21 75° ESE 05:25:56 10° S
Cosmos 1680 Rocket 3.4 05:14:43 10° NNW 05:20:02 83° WSW 05:25:17 10° SSE
Meteor 1-19 Rocket 4.2 05:16:41 10° S 05:22:22 87° E 05:28:01 10° N
Lacrosse 5 2.2 05:20:27 28° SSW 05:23:02 62° SE 05:28:02 10° NE
EXPRESS MD2 4.0 05:22:09 31° NNW 05:23:18 47° NNE 05:28:16 10° E
Cosmos 1153 Rocket 4.4 05:17:06 10° N 05:23:25 77° W 05:29:47 10° S
Resurs 1-4 Rocket 3.4 05:20:00 10° NNW 05:24:02 23° WNW 05:24:02 23° WNW
IRS-1C Rocket 4.1 05:19:43 10° N 05:24:56 59° WNW 05:27:44 27° SW
CZ-4C R/B 3.6 05:26:04 28° W 05:27:02 29° WSW 05:33:30 10° SSW
Cosmos 2058 Rocket 3.8 05:24:10 10° N 05:28:28 53° E 05:32:43 10° SSE
Cosmos 1605 Rocket 4.1 05:24:19 10° NNW 05:30:09 47° W 05:36:02 10° SSW
NOSS 3-4 (A) 3.5 05:26:20 24° SW 05:30:25 84° NW 05:37:02 10° NE
NOSS 3-4 (C) 3.5 05:26:24 24° SW 05:30:31 85° NW 05:37:09 10° NE
OTV 4 2.4 05:33:36 17° SSE 05:33:36 17° SSE 05:34:52 10° SE
BREEZE-M DEB (TANK) 4.1 05:21:54 10° WNW 05:40:40 80° NNE 05:45:04 10° ESE
NOSS 0 Rocket 4.3 05:36:36 10° NW 05:42:23 41° WSW 05:48:10 10° S
Thor Agena Rocket 3.6 05:37:51 10° S 05:43:05 60° WSW 05:48:20 10° NNW
CZ-4B R/B 3.3 05:37:54 10° N 05:43:08 53° WNW 05:47:54 13° SW
Aureole 2 Rocket 4.2 05:40:15 10° N 05:43:37 34° ENE 05:46:40 10° SE
Meteor 1-23 Rocket 4.2 05:38:52 10° S 05:44:28 89° E 05:50:11 10° N
Cosmos 2084 4.0 05:44:02 29° W 05:45:06 35° NW 05:48:38 10° NNE
Meteor 2-4 Rocket 3.8 05:39:54 10° SSW 05:45:42 83° W 05:51:40 10° N
Cosmos 2237 Rocket 2.4 05:43:07 10° NW 05:48:28 46° WSW 05:53:47 10° S
Cosmos 1666 2.6 05:45:40 10° NNW 05:49:32 68° W 05:53:21 10° S
RESURS DK-1 2.3 05:46:43 16° SSW 05:49:58 81° WNW 05:54:08 10° NNE
Cosmos 292 Rocket 3.7 05:45:11 10° NNW 05:50:05 82° WSW 05:54:56 10° SSE
Okean O Rocket 2.6 05:48:47 10° N 05:52:31 28° WNW 05:54:08 22° WSW
ATLAS 2AS CENTAUR R/B 4.5 05:47:45 12° WNW 05:53:09 24° NNW 05:59:29 10° NNE
Cosmos 2098 Rocket 3.5 05:49:42 10° N 05:53:15 58° E 05:57:42 10° SSE
Tiangong 1 1.6 05:54:38 25° SW 05:56:01 46° SSE 05:58:58 10° E
Cosmos 2061 Rocket 4.0 05:50:26 10° N 05:56:44 75° W 06:03:03 10° S
USA 116 4.3 05:55:05 10° S 06:00:14 62° W 06:04:58 10° NNW
Cosmos 1980 4.3 05:56:30 10° NW 06:01:31 33° WSW 06:06:32 10° SSW
Cosmos 1025 Rocket 3.6 05:59:15 12° SW 06:02:51 36° WNW 06:06:52 10° N
ATLAS 5 CENTAUR R/B 2.7 05:57:08 10° NW 06:02:54 47° WSW 06:09:03 10° S
Cosmos 1802 Rocket 3.9 05:57:46 10° NNW 06:03:57 75° W 06:10:03 10° S
BREEZE M DEB (TANK) 3.5 06:01:28 18° W 06:03:57 54° N 06:13:57 10° ENE
Cosmos 2100 Rocket 4.0 06:00:13 10° NNW 06:06:17 57° W 06:12:24 10° S
SL-16 R/B 2.1 06:01:00 10° NNW 06:06:41 74° WSW 06:12:20 10° SSE
CZ-4B R/B 4.0 06:02:55 10° NNE 06:06:57 76° ESE 06:10:46 10° S
Cosmos 1346 Rocket 3.0 06:03:21 10° SSW 06:07:10 47° WNW 06:11:03 10° N
Cosmos 1626 Rocket 4.4 06:03:09 10° S 06:07:26 54° E 06:11:42 10° NNE
Cosmos 1606 Rocket 4.1 06:04:49 10° NNW 06:08:48 34° W 06:12:44 10° SSW
Meteor 2-9 Rocket 4.3 06:04:27 10° NNW 06:09:54 53° W 06:15:27 10° S
Cosmos 1743 4.2 06:09:31 10° NW 06:12:05 17° W 06:14:09 12° WSW
USA 129 1.7 06:10:49 10° S 06:12:46 42° WSW 06:14:37 10° NNW
Cosmos 724 4.4 06:06:32 10° NW 06:12:46 73° WSW 06:18:56 10° SSE
SeaSat 1 3.4 06:15:05 10° SE 06:19:51 51° ENE 06:24:38 10° NNW
Cosmos 1725 Rocket 4.1 06:14:09 10° N 06:20:30 85° E 06:26:46 10° S
Cosmos 1726 Rocket 4.3 06:16:45 10° NNW 06:20:38 31° W 06:24:28 10° SSW
CZ-4B R/B 4.5 06:17:30 10° NNW 06:20:38 20° WNW 06:23:50 10° WSW
Meteor PRIRODA 4.1 06:17:32 10° N 06:21:05 41° WNW 06:24:35 10° SW
COS B Rocket 3.7 06:21:09 15° W 06:21:27 15° W 06:22:58 10° NW
Cosmos 2227 Rocket 2.9 06:17:16 10° WSW 06:22:24 34° NW 06:27:34 10° N
ADEOS II 2.5 06:20:23 10° N 06:25:21 43° WNW 06:30:17 10° SW
USA 102 2.0 06:26:04 10° SE 06:26:47 46° ENE 06:28:48 10° NNW
Cosmos 1898 Rocket 3.6 06:23:20 10° SSW 06:28:37 66° WNW 06:33:54 10° NNE
Cosmos 2219 Rocket 3.7 06:26:37 10° WNW 06:29:09 13° W 06:31:41 10° WSW
Cosmos 1602 Rocket 3.6 06:25:11 10° S 06:29:39 86° WNW 06:34:06 10° N
Cosmos 1892 Rocket 4.4 06:27:26 10° SW 06:31:23 30° WNW 06:35:22 10° NNW
Cosmos 2297 Rocket 2.8 06:26:50 10° SW 06:32:05 39° WNW 06:37:23 10° NNE
SKYMED 2 3.6 06:29:16 10° SSE 06:33:37 85° WSW 06:37:59 10° NNW
NOAA 6 4.1 06:32:55 10° N 06:38:07 72° WNW 06:43:16 10° SSW
